This is the latest recevied weather packets stored in our database for station/object KC4MCQ-10. If no packets are shown the sender has not sent any weather packets the latest 10 day(s).
| Time | Temp. | Humidity | Pressure | Rain* | Wind** | Luminosity | Snow |
|---|---|---|---|---|---|---|---|
| 1787621354 | 24.44° C | 87% | 1016.5 hPa | 0 mm | 0 m/s | - | - |
| 1787620753 | 25° C | 87% | 1016.5 hPa | 0 mm | 0 m/s | - | - |
| 1787620152 | 25° C | 86% | 1016.5 hPa | 0 mm | 0 m/s | - | - |
| 1787619551 | 25° C | 86% | 1016.7 hPa | 0 mm | 0.45 m/s, 249° | - | - |
| 1787618941 | 25° C | 86% | 1016.5 hPa | 0 mm | 0 m/s | - | - |
| 1787618340 | 25° C | 86% | 1016.2 hPa | 0 mm | 0.45 m/s, 272° | - | - |
| 1787617739 | 25° C | 86% | 1015.8 hPa | 0 mm | 0.45 m/s, 272° | - | - |
| 1787617138 | 25° C | 86% | 1015.8 hPa | 0 mm | 0.45 m/s, 350° | - | - |
| 1787616537 | 25° C | 86% | 1015.4 hPa | 0 mm | 0 m/s | - | - |
| 1787615936 | 25° C | 86% | 1015.5 hPa | 0 mm | 0 m/s | - | - |
| 1787615335 | 25° C | 86% | 1015.1 hPa | 0 mm | 0.89 m/s, 271° | - | - |
| 1787613532 | 25° C | 87% | 1015.2 hPa | 0 mm | 1.34 m/s, 301° | - | - |
| 1787611728 | 25° C | 86% | 1016 hPa | 0 mm | 2.24 m/s, 311° | - | - |
| 1787611125 | 25° C | 85% | 1016.2 hPa | 0 mm | 1.34 m/s, 350° | - | - |
| 1787610523 | 25.56° C | 84% | 1016.5 hPa | 0 mm | 1.34 m/s, 276° | - | - |
| 1787609922 | 26.67° C | 82% | 1016.8 hPa | 0 mm | 0.89 m/s, 253° | - | - |
| 1787609319 | 27.78° C | 80% | 1016 hPa | 0 mm | 2.24 m/s, 309° | - | - |
| 1787608719 | 28.89° C | 79% | 1015.3 hPa | 0 mm | 3.58 m/s, 263° | - | - |
| 1787608118 | 28.89° C | 79% | 1014.8 hPa | 0 mm | 0.89 m/s, 273° | - | - |
| 1787607517 | 28.89° C | 79% | 1014.4 hPa | 0 mm | 1.34 m/s, 311° | - | - |
| 1787606916 | 28.89° C | 77% | 1014.3 hPa | 0 mm | 1.34 m/s, 248° | - | - |
| 1787606310 | 28.89° C | 76% | 1014.7 hPa | 0 mm | 0.45 m/s, 70° | - | - |
| 1787605709 | 29.44° C | 75% | 1014.9 hPa | 0 mm | 0.89 m/s, 352° | - | - |
| 1787605107 | 30° C | 73% | 1014.7 hPa | 0 mm | 0.89 m/s, 333° | - | - |
| 1787604506 | 30.56° C | 73% | 1014.5 hPa | 0 mm | 0 m/s | - | - |
* Rain latest 24 hours (hover to see other rain measurements)
** Current wind speed in m/s (hover to see current wind gust speed)